MHO3846 PHNL-PHOG

Flight info

Callsign MHO3846
Flight time 0h 49m
Altitude 7000
Route PALAY3 LNY CAMPS4
Aircraft C208/L-SDFGR/C

Departure

Time 2026-04-14 14:59
Airport Daniel K. Inouye International Airport (PHNL)

Arrival

Time 2026-04-14 15:49
Airport Kahului International Airport (PHOG)
Time Latitude Longitude Altitude Speed Heading
2026-04-14 14:48 21.33087 -157.91086 23 ft 0 kts 52°
2026-04-14 14:54 21.33088 -157.91085 23 ft 2 kts 52°
2026-04-14 14:55 21.33099 -157.91056 23 ft 3 kts 111°
2026-04-14 14:55 21.33074 -157.91029 23 ft 8 kts 144°
2026-04-14 14:55 21.32993 -157.90984 24 ft 18 kts 163°
2026-04-14 14:55 21.32883 -157.91093 22 ft 28 kts 231°
2026-04-14 14:56 21.32718 -157.91331 25 ft 7 kts 231°
2026-04-14 14:56 21.32649 -157.91321 22 ft 15 kts 170°
2026-04-14 14:56 21.32512 -157.91340 22 ft 25 kts 193°
2026-04-14 14:57 21.32330 -157.91427 23 ft 33 kts 217°
2026-04-14 14:57 21.32158 -157.91630 23 ft 40 kts 231°
2026-04-14 14:57 21.32044 -157.91773 23 ft 13 kts 215°
2026-04-14 14:57 21.32065 -157.91761 24 ft 0 kts 52°
2026-04-14 14:58 21.32087 -157.91730 23 ft 20 kts 53°
2026-04-14 14:58 21.32266 -157.91476 24 ft 63 kts 52°
2026-04-14 14:58 21.32595 -157.91021 60 ft 85 kts 54°
2026-04-14 14:59 21.32978 -157.90513 186 ft 93 kts 55°
2026-04-14 14:59 21.33513 -157.90091 337 ft 100 kts
2026-04-14 14:59 21.34091 -157.90443 529 ft 103 kts 303°
2026-04-14 14:59 21.34461 -157.91088 724 ft 99 kts 301°
2026-04-14 15:00 21.34768 -157.91744 881 ft 101 kts 295°
2026-04-14 15:00 21.35047 -157.92427 1056 ft 99 kts 292°
2026-04-14 15:00 21.35279 -157.93131 1186 ft 102 kts 290°
2026-04-14 15:00 21.35470 -157.93881 1339 ft 103 kts 280°
2026-04-14 15:01 21.35599 -157.94618 1534 ft 98 kts 276°
2026-04-14 15:01 21.35668 -157.95374 1585 ft 109 kts 275°
2026-04-14 15:01 21.35775 -157.96147 1815 ft 96 kts 278°
2026-04-14 15:01 21.35861 -157.96802 1999 ft 84 kts 277°
2026-04-14 15:02 21.35971 -157.97448 2016 ft 95 kts 277°
2026-04-14 15:02 21.36104 -157.98184 2049 ft 107 kts 277°
2026-04-14 15:02 21.36232 -157.99012 2099 ft 117 kts 269°
2026-04-14 15:02 21.35882 -157.99715 2247 ft 104 kts 200°
2026-04-14 15:03 21.35232 -157.99978 2455 ft 98 kts 197°
2026-04-14 15:03 21.34599 -158.00243 2639 ft 97 kts 196°
2026-04-14 15:03 21.33971 -158.00521 2817 ft 97 kts 197°
2026-04-14 15:03 21.33347 -158.00777 2979 ft 95 kts 198°
2026-04-14 15:04 21.32733 -158.01003 3134 ft 92 kts 197°
2026-04-14 15:04 21.32140 -158.01218 3298 ft 89 kts 198°
2026-04-14 15:04 21.31571 -158.01409 3456 ft 83 kts 196°
2026-04-14 15:04 21.31020 -158.01546 3570 ft 81 kts 166°
2026-04-14 15:05 21.30725 -158.01043 3602 ft 93 kts 101°
2026-04-14 15:05 21.30623 -158.00326 3637 ft 102 kts 105°
2026-04-14 15:05 21.30491 -157.99559 3679 ft 109 kts 105°
2026-04-14 15:05 21.30366 -157.98724 3714 ft 118 kts 107°
2026-04-14 15:06 21.30220 -157.97824 3756 ft 127 kts 105°
2026-04-14 15:06 21.30075 -157.96870 3790 ft 131 kts 103°
2026-04-14 15:06 21.29907 -157.95919 3936 ft 131 kts 104°
2026-04-14 15:06 21.29736 -157.94946 4078 ft 136 kts 103°
2026-04-14 15:07 21.29553 -157.93946 4246 ft 136 kts 106°
2026-04-14 15:07 21.29380 -157.92961 4439 ft 134 kts 106°
2026-04-14 15:07 21.29208 -157.91991 4636 ft 131 kts 104°
2026-04-14 15:07 21.29040 -157.91043 4824 ft 131 kts 104°
2026-04-14 15:08 21.28888 -157.90092 5006 ft 128 kts 105°
2026-04-14 15:08 21.28735 -157.89159 5188 ft 126 kts 106°
2026-04-14 15:08 21.28741 -157.88219 5368 ft 128 kts 82°
2026-04-14 15:08 21.28700 -157.87290 5553 ft 124 kts 117°
2026-04-14 15:09 21.28272 -157.86514 5747 ft 120 kts 125°
2026-04-14 15:09 21.27843 -157.85749 5934 ft 119 kts 127°
2026-04-14 15:09 21.27406 -157.85007 6125 ft 117 kts 127°
2026-04-14 15:09 21.26973 -157.84282 6311 ft 114 kts 128°
2026-04-14 15:10 21.26553 -157.83577 6486 ft 110 kts 128°
2026-04-14 15:10 21.26149 -157.82898 6649 ft 106 kts 129°
2026-04-14 15:10 21.25763 -157.82249 6807 ft 101 kts 129°
2026-04-14 15:10 21.25399 -157.81637 6943 ft 95 kts 130°
2026-04-14 15:11 21.25043 -157.81043 6995 ft 98 kts 129°
2026-04-14 15:11 21.24640 -157.80398 7026 ft 111 kts 129°
2026-04-14 15:11 21.24178 -157.79656 7041 ft 128 kts 128°
2026-04-14 15:11 21.23668 -157.78813 7077 ft 142 kts 127°
2026-04-14 15:12 21.23094 -157.77865 7045 ft 161 kts 127°
2026-04-14 15:12 21.22457 -157.76811 7016 ft 174 kts 126°
2026-04-14 15:12 21.21785 -157.75694 7007 ft 180 kts 126°
2026-04-14 15:12 21.21108 -157.74547 6999 ft 183 kts 125°
2026-04-14 15:13 21.20410 -157.73400 6996 ft 184 kts 127°
2026-04-14 15:13 21.19711 -157.72239 6995 ft 186 kts 126°
2026-04-14 15:13 21.19020 -157.71061 6993 ft 187 kts 127°
2026-04-14 15:13 21.18304 -157.69899 6991 ft 186 kts 127°
2026-04-14 15:14 21.17605 -157.68746 6987 ft 183 kts 127°
2026-04-14 15:14 21.16913 -157.67612 6990 ft 182 kts 126°
2026-04-14 15:14 21.16235 -157.66468 6999 ft 183 kts 125°
2026-04-14 15:14 21.15552 -157.65300 6989 ft 187 kts 127°
2026-04-14 15:15 21.14825 -157.64144 7001 ft 189 kts 128°
2026-04-14 15:15 21.14112 -157.62954 6975 ft 190 kts 124°
2026-04-14 15:15 21.13408 -157.61775 6977 ft 186 kts 127°
2026-04-14 15:15 21.12699 -157.60629 6978 ft 182 kts 126°
2026-04-14 15:16 21.12024 -157.59503 6977 ft 178 kts 126°
2026-04-14 15:16 21.11360 -157.58390 6976 ft 176 kts 126°
2026-04-14 15:16 21.10697 -157.57289 6978 ft 175 kts 126°
2026-04-14 15:16 21.10073 -157.56172 6979 ft 174 kts 124°
2026-04-14 15:17 21.09444 -157.55068 6979 ft 174 kts 125°
2026-04-14 15:17 21.08814 -157.53963 6983 ft 174 kts 125°
2026-04-14 15:17 21.08185 -157.52856 6980 ft 174 kts 124°
2026-04-14 15:17 21.07562 -157.51752 6979 ft 173 kts 125°
2026-04-14 15:18 21.06943 -157.50654 6979 ft 172 kts 125°
2026-04-14 15:18 21.06335 -157.49576 6978 ft 171 kts 124°
2026-04-14 15:18 21.05720 -157.48487 6982 ft 171 kts 125°
2026-04-14 15:18 21.05102 -157.47397 6982 ft 171 kts 125°
2026-04-14 15:19 21.04485 -157.46306 6981 ft 171 kts 124°
2026-04-14 15:19 21.03869 -157.45217 6979 ft 171 kts 125°
2026-04-14 15:19 21.03256 -157.44130 6983 ft 170 kts 124°
2026-04-14 15:19 21.02642 -157.43044 6983 ft 171 kts 124°
2026-04-14 15:20 21.02026 -157.41958 6983 ft 171 kts 124°
2026-04-14 15:20 21.01409 -157.40868 6979 ft 171 kts 125°
2026-04-14 15:20 21.00792 -157.39779 6986 ft 171 kts 124°
2026-04-14 15:20 21.00176 -157.38690 6986 ft 171 kts 124°
2026-04-14 15:21 20.99562 -157.37601 6987 ft 171 kts 124°
2026-04-14 15:21 20.98943 -157.36513 6987 ft 171 kts 125°
2026-04-14 15:21 20.98324 -157.35420 6987 ft 172 kts 125°
2026-04-14 15:21 20.97706 -157.34330 6987 ft 172 kts 125°
2026-04-14 15:22 20.97085 -157.33236 6988 ft 172 kts 124°
2026-04-14 15:22 20.96463 -157.32137 6987 ft 172 kts 124°
2026-04-14 15:22 20.95843 -157.31042 6986 ft 172 kts 124°
2026-04-14 15:22 20.95221 -157.29944 6984 ft 172 kts 124°
2026-04-14 15:23 20.94599 -157.28849 6980 ft 172 kts 124°
2026-04-14 15:23 20.93978 -157.27753 6990 ft 172 kts 124°
2026-04-14 15:23 20.93355 -157.26655 6984 ft 173 kts 124°
2026-04-14 15:23 20.92732 -157.25558 6996 ft 172 kts 124°
2026-04-14 15:24 20.92110 -157.24462 6994 ft 172 kts 124°
2026-04-14 15:24 20.91490 -157.23370 7000 ft 172 kts 124°
2026-04-14 15:24 20.90871 -157.22280 7002 ft 171 kts 124°
2026-04-14 15:24 20.90255 -157.21194 7008 ft 170 kts 125°
2026-04-14 15:25 20.89643 -157.20116 7001 ft 170 kts 125°
2026-04-14 15:25 20.89025 -157.19032 7010 ft 170 kts 125°
2026-04-14 15:25 20.88411 -157.17952 7017 ft 170 kts 125°
2026-04-14 15:25 20.87797 -157.16870 7016 ft 170 kts 125°
2026-04-14 15:26 20.87190 -157.15802 7016 ft 170 kts 125°
2026-04-14 15:26 20.86573 -157.14717 7019 ft 171 kts 125°
2026-04-14 15:26 20.85957 -157.13635 7024 ft 171 kts 125°
2026-04-14 15:26 20.85341 -157.12551 7033 ft 170 kts 125°
2026-04-14 15:27 20.84726 -157.11468 7035 ft 170 kts 125°
2026-04-14 15:27 20.84114 -157.10389 7042 ft 170 kts 124°
2026-04-14 15:27 20.83498 -157.09309 7045 ft 170 kts 124°
2026-04-14 15:27 20.82883 -157.08229 7040 ft 170 kts 124°
2026-04-14 15:28 20.82266 -157.07147 7045 ft 170 kts 124°
2026-04-14 15:28 20.81650 -157.06065 7052 ft 171 kts 124°
2026-04-14 15:28 20.81032 -157.04981 7044 ft 171 kts 124°
2026-04-14 15:28 20.80413 -157.03896 7050 ft 171 kts 124°
2026-04-14 15:29 20.79794 -157.02809 7055 ft 171 kts 124°
2026-04-14 15:29 20.79175 -157.01723 7053 ft 171 kts 124°
2026-04-14 15:29 20.78557 -157.00637 7004 ft 171 kts 124°
2026-04-14 15:29 20.77937 -156.99551 6994 ft 171 kts 124°
2026-04-14 15:30 20.77318 -156.98464 7005 ft 172 kts 124°
2026-04-14 15:30 20.76694 -156.97371 7004 ft 172 kts 124°
2026-04-14 15:30 20.76217 -156.96198 7003 ft 174 kts 107°
2026-04-14 15:30 20.75906 -156.94952 7002 ft 174 kts 108°
2026-04-14 15:31 20.75569 -156.93714 7004 ft 174 kts 108°
2026-04-14 15:31 20.75231 -156.92474 7000 ft 174 kts 108°
2026-04-14 15:31 20.74897 -156.91232 6998 ft 174 kts 108°
2026-04-14 15:31 20.74561 -156.89990 7001 ft 174 kts 108°
2026-04-14 15:32 20.74224 -156.88746 7003 ft 174 kts 109°
2026-04-14 15:32 20.73888 -156.87503 6999 ft 174 kts 109°
2026-04-14 15:32 20.73553 -156.86259 6996 ft 174 kts 109°
2026-04-14 15:32 20.73217 -156.85018 7000 ft 174 kts 109°
2026-04-14 15:33 20.72882 -156.83777 6994 ft 174 kts 109°
2026-04-14 15:33 20.72545 -156.82538 6991 ft 174 kts 109°
2026-04-14 15:33 20.72210 -156.81298 6998 ft 174 kts 109°
2026-04-14 15:33 20.71875 -156.80060 6993 ft 174 kts 109°
2026-04-14 15:34 20.71534 -156.78820 7000 ft 174 kts 109°
2026-04-14 15:34 20.71205 -156.77594 6996 ft 174 kts 109°
2026-04-14 15:34 20.70870 -156.76356 6995 ft 174 kts 109°
2026-04-14 15:34 20.70534 -156.75114 6948 ft 177 kts 109°
2026-04-14 15:35 20.70180 -156.73817 6789 ft 181 kts 109°
2026-04-14 15:35 20.69832 -156.72531 6633 ft 184 kts 109°
2026-04-14 15:35 20.69476 -156.71216 6480 ft 185 kts 109°
2026-04-14 15:35 20.69118 -156.69896 6308 ft 185 kts 109°
2026-04-14 15:36 20.68759 -156.68577 6141 ft 185 kts 109°
2026-04-14 15:36 20.68401 -156.67257 5968 ft 185 kts 109°
2026-04-14 15:36 20.68043 -156.65938 5795 ft 184 kts 109°
2026-04-14 15:36 20.67687 -156.64630 5625 ft 183 kts 109°
2026-04-14 15:37 20.67332 -156.63325 5455 ft 182 kts 109°
2026-04-14 15:37 20.66979 -156.62030 5286 ft 181 kts 109°
2026-04-14 15:37 20.66630 -156.60743 5118 ft 180 kts 109°
2026-04-14 15:37 20.66188 -156.59504 4948 ft 177 kts 127°
2026-04-14 15:38 20.65298 -156.58645 4784 ft 172 kts 153°
2026-04-14 15:38 20.64162 -156.58307 4609 ft 170 kts 179°
2026-04-14 15:38 20.63017 -156.58546 4438 ft 169 kts 204°
2026-04-14 15:38 20.62356 -156.58983 4328 ft 169 kts 216°
2026-04-14 15:39 20.61400 -156.59715 4159 ft 169 kts 214°
2026-04-14 15:39 20.60435 -156.60440 3990 ft 170 kts 217°
2026-04-14 15:39 20.59789 -156.61475 3818 ft 173 kts 258°
2026-04-14 15:39 20.60217 -156.63069 3602 ft 177 kts 312°
2026-04-14 15:40 20.60913 -156.63551 3492 ft 179 kts 341°
2026-04-14 15:40 20.62131 -156.63498 3331 ft 179 kts 24°
2026-04-14 15:40 20.63186 -156.62800 3168 ft 178 kts 34°
2026-04-14 15:40 20.64206 -156.62061 3014 ft 177 kts 35°
2026-04-14 15:41 20.65190 -156.61326 3001 ft 169 kts 36°
2026-04-14 15:41 20.66141 -156.60615 3003 ft 165 kts 36°
2026-04-14 15:41 20.67075 -156.59922 3001 ft 163 kts 36°
2026-04-14 15:41 20.67997 -156.59234 2999 ft 161 kts 36°
2026-04-14 15:42 20.68909 -156.58554 2996 ft 159 kts 35°
2026-04-14 15:42 20.69815 -156.57878 2998 ft 159 kts 36°
2026-04-14 15:42 20.70720 -156.57203 3000 ft 158 kts 36°
2026-04-14 15:42 20.71617 -156.56532 3000 ft 157 kts 35°
2026-04-14 15:43 20.72509 -156.55867 2990 ft 156 kts 35°
2026-04-14 15:43 20.73396 -156.55204 2991 ft 155 kts 35°
2026-04-14 15:43 20.74282 -156.54544 2985 ft 155 kts 35°
2026-04-14 15:43 20.75167 -156.53883 2985 ft 155 kts 35°
2026-04-14 15:44 20.76048 -156.53224 2983 ft 155 kts 35°
2026-04-14 15:44 20.76948 -156.52552 2859 ft 163 kts 33°
2026-04-14 15:44 20.77898 -156.51840 2646 ft 166 kts 33°
2026-04-14 15:44 20.78811 -156.51166 2435 ft 152 kts 33°
2026-04-14 15:45 20.79656 -156.50548 2238 ft 144 kts 32°
2026-04-14 15:45 20.80467 -156.49953 2049 ft 138 kts 32°
2026-04-14 15:45 20.81248 -156.49371 1876 ft 136 kts 33°
2026-04-14 15:45 20.82011 -156.48800 1702 ft 133 kts 34°
2026-04-14 15:46 20.82754 -156.48243 1542 ft 130 kts 32°
2026-04-14 15:46 20.83480 -156.47697 1377 ft 125 kts 33°
2026-04-14 15:46 20.84193 -156.47170 1198 ft 124 kts 33°
2026-04-14 15:46 20.84889 -156.46643 1037 ft 120 kts 33°
2026-04-14 15:47 20.85506 -156.46184 884 ft 98 kts 33°
2026-04-14 15:47 20.86023 -156.45800 748 ft 85 kts 34°
2026-04-14 15:47 20.86468 -156.45469 664 ft 72 kts 32°
2026-04-14 15:47 20.86867 -156.45173 592 ft 73 kts 31°
2026-04-14 15:48 20.87290 -156.44846 571 ft 78 kts 32°
2026-04-14 15:48 20.87754 -156.44483 504 ft 87 kts 31°
2026-04-14 15:48 20.88257 -156.44116 328 ft 91 kts 35°
2026-04-14 15:48 20.88753 -156.43749 127 ft 84 kts 32°
2026-04-14 15:49 20.89196 -156.43422 45 ft 66 kts 31°
2026-04-14 15:49 20.89491 -156.43204 46 ft 33 kts 36°
2026-04-14 15:49 20.89648 -156.43088 45 ft 22 kts 34°
2026-04-14 15:49 20.89759 -156.43109 43 ft 15 kts 304°
2026-04-14 15:50 20.89786 -156.43249 44 ft 25 kts 271°
2026-04-14 15:50 20.89785 -156.43404 44 ft 17 kts 267°
2026-04-14 15:50 20.89773 -156.43498 44 ft 10 kts 245°
2026-04-14 15:50 20.89750 -156.43550 44 ft 6 kts 245°
2026-04-14 15:51 20.89708 -156.43552 44 ft 6 kts 153°
2026-04-14 15:51 20.89681 -156.43559 44 ft 2 kts 247°
2026-04-14 15:51 20.89681 -156.43560 44 ft 0 kts 247°